Location: Le Domaine
(47.0333°N, 76.5361°W)
Time: 13:39:52
(UTC-05:00)

Explorer 11/Cluster Stage 4 - Pass Details

Date: 19 November 2019
Orbit: 467 x 1259 km, 28.8° (Epoch: 11 December)

Event Time Altitude Azimuth Distance (km) Brightness Sun altitude
Rises 23:31:12 0° 245° (WSW) 3,723 - -62.3°
Reaches altitude 10° 23:35:34 10° 219° (SW) 2,940 - -62.4°
Maximum altitude 23:38:37 13° 194° (SSW) 2,815 - -62.5°
Drops below altitude 10° 23:41:49 10° 170° (S) 3,118 - -62.5°
Sets 23:46:46 0° 145° (SE) 4,166 - -62.6°
